Flag for Lithuania Weather past 2 weeks in Vilnius, Lithuania

21 °F

Ice fog.

Feels Like: 12 °F
Forecast: 30 / 34 °F
Wind: 8 mph from South

Location: Vilnius Airport

Current Time: Nov 28, 2015 at 10:14:43 AM

Latest Report: Nov 28, 2015 at 8:20 AM

Visibility: 2 mi

Pressure: 29.95 "Hg

Humidity: 93%

Dew point: 19 °F

Location of VilniusLocation

Historic Weather in Vilnius — Graph


Vilnius temperature yesterday

Maximum temperature yesterday: 28 °F (at 12:20 PM)
Minimum temperature yesterday: 23 °F (at 1:20 AM)
Average temperature yesterday: 26 °F

Past Weeks' High & Low Weather Summary

High50 °F (Nov 18, 10:50 AM)100% (Nov 14, 4:20 AM)30.18 "Hg (Nov 14, 4:20 AM)
Low19 °F (Nov 28, 5:20 AM)64% (Nov 25, 1:20 PM)29.27 "Hg (Nov 20, 11:50 AM)
Average36 °F91%29.75 "Hg
* Reported Nov 13 8:20 AM — Nov 28 8:20 AM, Vilnius, Weather by CustomWeather, © 2015

Note: Actual official high and low records may vary slightly from our data, if they occured in-between our weather recording intervals... More about our weather records


Vilnius weather history for previous 24 hours

Time TempWeatherWind HumidityBarometerVisibility
8:20 AM
Sat, Nov 28
21 °FIce fog.8 mph93%29.95 "Hg2 mi
7:50 AM19 °FIce fog.7 mph93%29.95 "Hg2 mi
7:20 AM19 °FIce fog.6 mph86%29.95 "Hg2 mi
6:50 AM19 °FIce fog.7 mph86%29.95 "Hg2 mi
6:20 AM19 °FIce fog.6 mph86%29.98 "Hg2 mi
5:50 AM19 °FIce fog.5 mph86%29.98 "Hg2 mi
5:20 AM19 °FIce fog.7 mph93%29.98 "Hg2 mi
4:50 AM21 °FIce fog.9 mph93%29.98 "Hg2 mi
4:20 AM23 °FIce fog.9 mph100%30.01 "Hg2 mi
3:50 AM23 °FIce fog.8 mph93%30.01 "Hg2 mi
3:20 AM23 °FIce fog.10 mph100%30.04 "Hg2 mi
1:50 AM25 °FIce fog.9 mph100%30.04 "Hg2 mi
12:50 AM27 °FIce fog.10 mph93%30.07 "Hg2 mi
12:20 AM27 °FIce fog.7 mph93%30.07 "Hg2 mi
11:50 PM
Fri, Nov 27
27 °FIce fog.9 mph93%30.07 "Hg2 mi
10:50 PM27 °FIce fog.9 mph93%30.09 "Hg2 mi
10:20 PM27 °FIce fog.8 mph93%30.09 "Hg2 mi
9:50 PM27 °FIce fog.12 mph93%30.09 "Hg2 mi
9:20 PM27 °FIce fog.12 mph100%30.09 "Hg2 mi
8:20 PM27 °FIce fog.12 mph93%30.09 "Hg2 mi
7:20 PM27 °FIce fog.10 mph93%30.09 "Hg2 mi
6:50 PM27 °FIce fog.10 mph93%30.09 "Hg2 mi
6:20 PM28 °FIce fog.10 mph86%30.09 "Hg2 mi
5:50 PM28 °FIce fog.10 mph86%30.09 "Hg2 mi
5:20 PM28 °FIce fog.12 mph93%30.09 "Hg2 mi
4:50 PM28 °FIce fog.10 mph93%30.09 "Hg2 mi
4:20 PM28 °FIce fog.10 mph93%30.09 "Hg2 mi
3:50 PM28 °FIce fog.10 mph93%30.09 "Hg2 mi
3:20 PM28 °FIce fog.9 mph93%30.09 "Hg2 mi
2:50 PM28 °FIce fog.9 mph93%30.09 "Hg2 mi
2:20 PM28 °FIce fog.10 mph93%30.09 "Hg2 mi
1:50 PM28 °FIce fog.10 mph93%30.09 "Hg2 mi
1:20 PM28 °FIce fog.9 mph93%30.09 "Hg2 mi
12:50 PM28 °FIce fog.10 mph93%30.12 "Hg2 mi
12:20 PM28 °FIce fog.13 mph93%30.12 "Hg2 mi
11:50 AM27 °FIce fog.10 mph100%30.12 "Hg2 mi
11:20 AM27 °FIce fog.10 mph100%30.12 "Hg2 mi
10:50 AM27 °FIce fog.12 mph100%30.12 "Hg2 mi
10:20 AM25 °FIce fog.13 mph100%30.12 "Hg1 mi
Weather by CustomWeather, © 2015

See weather overviewHow to use our weather pages